Location: Hodgeman County Health Department
(38.0841°N, 99.8934°W)
Time: 02:31:43
(UTC+00:00)

Daily predictions for brighter satellites

Satellite Brightness Start Highest point End
(mag) Time Altitude Azimuth Time Altitude Azimuth Time Altitude Azimuth
Cosmos 2297 Rocket 2.7 02:11:52 10° N 02:17:18 46° ENE 02:22:41 10° SE
Cosmos 1814 Rocket 4.0 02:13:38 10° NNW 02:18:45 68° ENE 02:23:51 10° SSE
Resurs 01 Rocket 3.1 02:17:11 10° ESE 02:20:28 21° ENE 02:23:44 10° NNE
Meteor 1-5 Rocket 4.1 02:17:24 10° N 02:22:46 75° E 02:28:02 10° SSE
SJ-6B 2.7 02:20:09 10° SSE 02:23:58 76° ENE 02:27:44 10° N
Cosmos 1315 Rocket 3.4 02:20:37 10° N 02:24:26 39° ENE 02:28:12 10° SSE
Cosmos 841 Rocket 4.3 02:21:27 10° NNW 02:26:26 52° WSW 02:31:26 10° S
USA 129 2.5 02:28:08 13° ESE 02:28:26 13° E 02:29:04 10° NE
Meteor 1-10 Rocket 4.3 02:25:03 10° S 02:30:24 54° E 02:35:51 10° NNE
Cosmos 2098 Rocket 3.7 02:27:46 10° NNW 02:30:39 36° W 02:33:18 10° SSW
Cosmos 1340 4.1 02:29:06 10° SE 02:31:52 20° E 02:34:39 10° NE
Cosmos 405 4.3 02:29:07 10° NNE 02:31:54 23° ENE 02:34:34 11° SE
Okean-O 2.9 02:27:36 10° S 02:32:00 70° WSW 02:36:26 10° NNW
Meteor 1-14 Rocket 4.4 02:29:25 10° N 02:35:21 90° WSW 02:41:06 10° S
Cosmos 2233 Rocket 4.2 02:30:43 10° S 02:37:02 81° W 02:43:23 10° N
Meteor 1-27 Rocket 4.3 02:35:10 10° SSE 02:40:29 41° E 02:45:55 10° NNE
Cosmos 1743 4.3 02:40:17 10° NNE 02:43:06 20° ENE 02:45:13 13° ESE
IGS 5A 3.4 02:39:09 10° SSE 02:43:18 84° ENE 02:47:27 10° N
Spot 2 4.2 02:39:52 10° S 02:43:54 67° WSW 02:47:55 10° NNW
ATLAS 2AS CENTAUR R/B 3.6 02:37:21 10° S 02:44:10 34° ESE 02:50:54 10° NE
PSLV R/B 3.9 02:41:32 10° NNE 02:45:32 58° E 02:49:29 10° S
BREEZE-M DEB (TANK) 3.3 02:43:16 10° WNW 02:46:45 63° SW 02:51:15 13° SE
NOSS 3-4 (A) 3.5 02:43:19 10° SW 02:48:57 74° NW 02:54:58 10° NNE
NOSS 3-4 (C) 3.5 02:43:21 10° SW 02:49:00 75° NW 02:55:03 10° NNE
CZ-4B R/B 1.4 02:47:06 10° NNE 02:50:12 49° E 02:53:13 10° S
Cosmos 968 Rocket 4.3 02:47:28 10° SW 02:52:29 53° WNW 02:57:31 10° N
MetOp-A 4.0 02:49:43 10° S 02:53:46 57° WSW 02:57:36 10° NNW
COBE Rocket 4.1 02:48:50 10° S 02:53:57 80° W 02:58:59 10° NNW
Cosmos 2219 3.4 02:49:50 10° NNW 02:55:23 56° ENE 02:59:49 16° SE
SPOT 1/Viking Rocket 4.0 02:53:29 14° SE 02:57:41 46° ENE 03:02:36 10° N
Meteor 1-11 Rocket 4.0 02:51:56 10° N 02:57:49 58° ENE 03:03:02 13° SSE
H-2A R/B 2.3 02:57:23 10° N 03:01:27 68° WNW 03:05:32 10° SSW
Cosmos 1328 Rocket 3.9 03:00:21 10° SSW 03:04:36 64° W 03:08:54 10° N
Cosmos 1464 Rocket 4.1 02:58:37 10° SSE 03:04:40 56° E 03:10:40 10° NNE
OBJECT-B 3.9 03:05:06 10° WSW 03:05:39 10° W 03:06:12 10° W
USA 186 4.3 03:06:28 10° WSW 03:07:14 11° W 03:08:00 10° WNW
Cosmos 2263 Rocket 3.9 03:03:26 10° N 03:07:15 18° NE 03:10:33 12° E
Okean 1 4.4 03:09:21 22° ESE 03:10:43 27° E 03:14:07 10° NNE
RESURS DK-1 3.3 03:09:41 22° SE 03:11:12 27° ESE 03:14:43 10° NE
Aureole 1 Rocket 2.3 03:07:53 10° SSW 03:11:20 82° WNW 03:14:22 10° NNE
Cosmos 1536 3.0 03:07:25 10° N 03:11:22 54° E 03:13:44 22° SSE
Cosmos 2208 Rocket 4.4 03:06:31 10° NNW 03:11:55 67° WSW 03:16:48 12° S
IRAS Rocket 4.2 03:06:24 10° NNE 03:12:04 81° ESE 03:17:42 10° SSW
Cosmos 2344 3.4 03:06:56 10° SSW 03:14:43 80° ESE 03:22:10 10° NE
NOSS 3-2 (C) 4.5 03:08:17 10° NW 03:16:06 66° WSW 03:23:44 14° SSE
SL-4 R/B 2.6 03:15:20 10° NW 03:19:47 52° NE 03:22:14 23° ESE
Ariane Rocket 3.0 03:18:14 20° SSE 03:21:47 74° ENE 03:26:52 10° N
CENTAUR R/B 4.3 03:16:31 10° NW 03:24:24 41° WSW 03:32:39 10° S
Cosmos 2227 Rocket 2.3 03:18:45 10° NNW 03:24:25 74° WSW 03:28:31 19° SSE
Nadezhda 4 Rocket 4.3 03:18:46 10° N 03:24:47 49° E 03:28:17 24° SE
IRS-1A Rocket 4.3 03:21:19 15° S 03:26:00 81° WSW 03:31:47 10° NNW
Cosmos 1980 Rocket 2.1 03:23:56 10° SSW 03:29:32 83° ESE 03:35:13 10° NNE
ASTRO E2 3.9 03:29:01 10° WSW 03:32:15 25° S 03:32:28 25° S
Cosmos 1933 Rocket 3.5 03:27:53 10° N 03:32:21 72° E 03:34:30 30° SSE
SPOT 5 3.8 03:34:23 26° ESE 03:36:32 38° ENE 03:41:17 10° N
ISS -1.0 03:35:30 10° N 03:37:07 13° NNE 03:38:46 10° NE
Cosmos 2369 3.9 03:31:53 10° SSW 03:37:31 73° WNW 03:43:11 10° NNE
Cosmos 2322 Rocket 3.9 03:38:51 15° E 03:38:51 15° E 03:41:12 10° ENE
Meteor 1-19 Rocket 4.1 03:36:57 22° S 03:40:26 65° E 03:45:47 10° NNE
Cosmos 1975 4.4 03:37:50 10° NNE 03:40:52 20° ENE 03:41:00 20° ENE
Terra 3.1 03:40:18 23° E 03:41:34 26° ENE 03:45:30 10° NNE
Meteor 2-4 Rocket 4.5 03:40:03 29° SE 03:41:45 34° E 03:46:50 10° NNE
Helios 1A Rocket 3.3 03:41:33 37° ESE 03:42:27 44° ENE 03:46:16 10° N
SJ 16-02 1.2 03:39:51 23° S 03:42:31 75° ESE 03:46:54 10° NNE
Timation 2 Rocket 4.3 03:37:14 10° NNW 03:43:48 62° ENE 03:47:15 30° SE
Cosmos 1697 Rocket 4.4 03:43:51 10° SW 03:48:56 34° WNW 03:54:04 10° N
OAO 3 Rocket 3.4 03:46:58 10° W 03:51:45 51° S 03:52:53 42° SSE
SPOT 3 Rocket 3.5 03:49:43 33° SSE 03:52:07 88° ENE 03:57:17 10° NNW
Cosmos 1354 Rocket 4.3 03:48:55 10° SSW 03:54:09 70° WNW 03:59:27 10° NNE
Cosmos 1777 Rocket 3.9 03:51:22 26° S 03:54:21 72° ESE 03:59:34 10° NNE
Spot 2 Rocket 3.6 03:53:55 39° SE 03:55:33 58° ENE 04:00:30 10° N
Resurs 01 Rocket 3.1 03:53:44 15° SSW 03:56:43 32° W 04:00:42 10° NNW
Cosmos 2297 Rocket 4.1 03:56:41 10° NW 04:00:58 22° W 04:05:13 10° SSW
Cosmos 773 Rocket 4.0 03:57:29 10° NNW 04:02:41 65° ENE 04:04:05 46° SE
Cosmos 389 Rocket 3.9 04:02:28 10° NNW 04:05:39 33° W 04:06:38 27° SW
Cosmos 2034 Rocket 4.3 04:01:51 15° SSW 04:07:10 67° W 04:13:29 10° N
Meteor 2-21 4.4 04:04:16 10° N 04:10:24 88° W 04:13:01 37° S
Meteor 2-9 Rocket 4.2 04:05:35 10° N 04:11:22 87° W 04:13:23 42° S
USA 215 3.8 04:05:29 10° ENE 04:10:52 34° ESE 04:10:52 34° ESE
Cosmos 2228 Rocket 3.3 04:14:40 40° SSW 04:16:14 69° W 04:20:46 10° N
SL-16 R/B 2.3 04:15:42 48° SE 04:16:22 51° ESE 04:21:50 10° NNE
CARTOSAT-1 4.5 04:15:24 32° SW 04:16:45 42° W 04:20:52 10° NNW
Cosmos 921 Rocket 3.5 04:12:20 10° NNW 04:16:45 55° WSW 04:17:43 45° SSW
Cosmos 1346 Rocket 3.2 04:21:06 53° NE 04:21:06 53° NE 04:24:28 10° NNE
Cosmos 1869 Rocket 3.7 04:17:46 10° NNW 04:22:14 68° W 04:22:58 56° SSW
Meteor 2-15 4.4 04:21:02 48° SSE 04:22:31 62° E 04:28:29 10° NNE
USA 81 4.0 04:22:41 57° SE 04:23:32 67° E 04:28:45 10° N
Meteor 2-21 Rocket 4.3 04:17:48 10° N 04:23:56 88° E 04:25:52 47° S
Meteor 1-18 Rocket 4.3 04:22:31 34° SSW 04:25:05 77° W 04:30:45 10° N
Cosmos 2292 Rocket 4.3 04:24:52 10° N 04:26:38 33° N 04:26:38 33° N
Cosmos 2279 Rocket 4.1 04:28:04 48° SE 04:29:07 54° E 04:35:08 10° NNE
Cosmos 158 Rocket 3.9 04:25:41 10° NNW 04:30:49 67° ENE 04:31:26 61° ESE
ERS-1 Rocket 3.0 04:32:44 57° SSW 04:33:39 71° WSW 04:38:41 10° NNW
Cosmos 44 Rocket 3.6 04:29:41 10° NNW 04:34:15 49° NE 04:34:29 49° ENE
ATLAS 2AS CENTAUR R/B 3.7 04:27:16 10° SW 04:34:53 54° NW 04:42:20 10° NNE
Meteor 2-16 Rocket 4.4 04:30:17 10° N 04:36:28 87° W 04:38:04 53° S
ARIANE 5 R/B 2.5 04:38:20 82° ENE 04:38:20 82° ENE 04:42:46 10° N
Cosmos 1538 Rocket 4.1 04:35:25 10° N 04:40:35 57° ENE 04:40:53 56° E
Cosmos 2360 Rocket 3.1 04:43:37 33° E 04:43:37 33° E 04:47:37 10° NE
Cosmos 1707 Rocket 3.8 04:43:16 63° W 04:43:29 64° W 04:47:53 10° N
Geosat 4.4 04:47:02 47° ENE 04:47:26 48° ENE 04:52:15 10° NNW
Cosmos 2263 Rocket 2.2 04:46:07 10° NNW 04:51:37 63° WSW 04:52:15 58° SW
Cosmos 2180 Rocket 4.4 04:54:10 62° ESE 04:54:43 65° E 05:00:47 10° NNE
SL-4 R/B 4.1 04:55:34 10° WNW 04:57:41 20° W 04:57:41 20° W
ATLAS CENTAUR R/B 4.1 04:57:55 10° N 05:00:24 14° NE 05:01:57 12° ENE
ATLAS 3B R/B 3.0 04:58:52 10° NNW 05:06:17 66° NE 05:08:17 49° ESE
Cosmos 1066 Rocket 4.1 05:06:12 80° SE 05:06:27 83° E 05:12:10 10° N
ISS -1.1 05:11:11 10° NW 05:12:25 21° NW 05:12:25 21° NW
Cosmos 1733 Rocket 4.0 05:13:15 10° NNW 05:16:54 45° WNW 05:16:54 45° WNW
Cosmos 990 Rocket 4.1 05:17:59 72° WNW 05:17:59 72° WNW 05:23:12 10° NNE
Terra 3.2 05:19:11 29° W 05:19:11 29° W 05:23:20 10° NW
Cosmos 1680 Rocket 4.3 05:15:40 10° N 05:20:26 41° ENE 05:20:26 41° ENE
Cosmos 2322 Rocket 2.4 05:20:36 57° WSW 05:21:22 63° WNW 05:26:57 10° NNE
Cosmos 2333 Rocket 3.1 05:25:36 38° ENE 05:25:36 38° ENE 05:29:34 10° NE
Cosmos 1898 Rocket 3.7 05:29:35 71° N 05:29:35 71° N 05:34:20 10° NNE
ALOS 2 4.3 05:30:43 25° NE 05:30:43 25° NE 05:33:27 10° N
Meteor 1-23 Rocket 4.4 05:31:36 63° ENE 05:31:36 63° ENE 05:36:53 10° NNE
Cosmos 1844 Rocket 3.0 05:26:10 10° NNW 05:31:29 55° ENE 05:31:29 55° ENE
Cosmos 1655 Rocket 3.9 05:28:28 10° N 05:34:43 75° E 05:34:47 75° E
Iridium 4 Rocket 3.9 05:32:29 10° N 05:36:04 52° NNE 05:36:04 52° NNE
Cosmos 2219 Rocket 3.0 05:47:59 41° ENE 05:47:59 41° ENE 05:51:56 10° NNE
Cosmos 1844 3.9 05:47:19 10° NNW 05:52:45 68° NE 05:52:45 68° NE
USA 215 3.6 05:48:06 10° NE 05:54:33 62° NW 05:58:09 28° WSW
SL-16 R/B 4.2 05:57:29 14° W 06:00:44 23° NW 06:05:08 10° N
ADEOS Rocket 3.4 06:03:06 47° ENE 06:03:06 47° ENE 06:08:35 10° N
Intercosmos 25 4.4 05:59:35 10° N 06:07:19 82° N 06:07:19 82° N
Cosmos 2266 Rocket 4.3 06:04:15 10° NNW 06:10:11 55° W 06:10:11 55° W
Cosmos 2237 Rocket 4.1 06:16:53 19° ENE 06:16:53 19° ENE 06:19:31 10° NE
COSMOS 2428 3.2 06:18:12 53° NE 06:18:12 53° NE 06:22:38 10° NNE
Meteor 2-17 Rocket 4.4 06:19:43 10° N 06:25:31 80° NNW 06:25:31 80° NNW
Cosmos 2360 Rocket 3.6 06:25:20 27° W 06:26:30 29° WNW 06:31:24 10° N
USA 267 3.9 06:24:07 29° E 06:27:10 50° NE 06:33:26 10° NW
Meteor 1-21 4.4 06:31:23 71° NNE 06:31:23 71° NNE 06:36:32 10° N
In-Cosmos 22 4.5 06:33:46 64° NNE 06:33:46 64° NNE 06:38:24 10° N
ATLAS CENTAUR R/B 3.0 06:35:05 10° NNW 06:37:56 35° NNW 06:37:56 35° NNW
Cosmos 1867 4.0 06:47:31 58° NNW 06:47:31 58° NNW 06:52:16 10° NNE
Cosmos 2278 Rocket 3.4 06:44:44 10° N 06:49:50 33° ENE 06:50:48 31° E
ATLAS 3B R/B 4.2 06:50:36 10° WNW 06:55:31 25° W 06:55:31 25° W
S3M 4.1 06:57:20 68° E 06:57:20 68° E 07:03:33 10° NNE
NOSS 3-1 (A) 4.4 06:51:21 10° NNW 06:59:02 65° NE 07:02:42 37° ESE
Cosmos 1553 Rocket 4.0 07:01:53 67° WNW 07:01:53 67° WNW 07:07:45 10° N
SL-16 R/B 4.2 07:03:37 17° E 07:03:37 17° E 07:06:36 10° ENE
NOSS 3-1 (C) 4.1 06:58:55 10° NW 07:06:45 76° WSW 07:07:55 67° S
Cosmos 1980 4.1 07:07:55 57° ENE 07:07:55 57° ENE 07:12:38 10° NNE
Cosmos 2333 Rocket 3.8 07:07:35 23° WNW 07:08:39 24° NW 07:13:14 10° N
Meteor 2-10 Rocket 4.4 07:20:01 10° N 07:25:21 42° ENE 07:25:44 42° E
NOSS 0 Rocket 4.0 07:25:16 69° WNW 07:25:22 69° WNW 07:31:37 10° NNE
CZ-4C R/B 3.0 07:19:03 10° NW 07:26:42 81° WSW 07:28:18 62° SSE
GP-B 4.3 07:24:39 10° NNE 07:27:49 38° NE 07:27:49 38° NE
Cosmos 2219 Rocket 3.9 07:29:40 20° WNW 07:30:46 21° NW 07:34:58 10° N
Lacrosse 5 2.9 07:35:14 39° ENE 07:35:14 39° ENE 07:38:43 10° NE
Cosmos 371 Rocket 4.1 07:40:34 44° NW 07:40:34 44° NW 07:44:27 10° N
Lacrosse 5 rocket 3.6 07:43:58 17° ENE 07:43:58 17° ENE 07:45:08 10° ENE
Cosmos 1745 Rocket 4.1 07:37:19 10° NNW 07:43:10 58° W 07:43:10 58° W
Meteor 2-5 Rocket 4.1 07:45:31 52° ESE 07:45:50 53° E 07:51:21 10° NNE
CZ-2D R/B 2.9 07:42:36 10° NNE 07:47:38 41° E 07:47:44 41° E
Meteor 2-12 Rocket 4.3 07:42:29 10° N 07:48:34 77° W 07:48:34 77° W
Cosmos 304 Rocket 4.3 07:51:08 55° NNW 07:51:08 55° NNW 07:55:07 10° NNE
Cosmos 1953 4.3 07:47:01 10° NNW 07:48:49 24° NNW 07:48:49 24° NNW
Cosmos 2237 Rocket 2.7 07:58:41 48° WNW 07:58:56 48° WNW 08:04:26 10° N
BREEZE-M DEB (TANK) 4.5 08:01:26 51° SSE 08:01:26 51° SSE 08:11:54 10° SE
MOZ.5/SAFIR/RUBIN 5/SL-8 4.1 08:08:32 61° NW 08:08:32 61° NW 08:12:31 10° NNW
USA 267 3.7 08:11:25 41° W 08:11:25 41° W 08:16:24 10° WNW
Cosmos 2084 Rocket 4.5 08:15:05 37° N 08:15:05 37° N 08:17:43 10° NNE
Resurs 1-4 Rocket 2.0 08:10:38 10° NNE 08:15:55 79° ESE 08:16:15 75° SSE
SL-16 R/B 3.0 08:15:02 30° SE 08:18:02 58° ENE 08:24:08 10° N
Cosmos 1943 Rocket 2.9 08:15:57 10° NNW 08:21:29 50° ENE 08:25:08 21° SE
USA 229 DEB 4.0 08:15:57 10° NW 08:23:15 55° WSW 08:24:29 50° SSW
USA 229 4.0 08:16:02 10° NW 08:23:21 55° WSW 08:24:37 50° SSW
Cosmos 2074 Rocket 4.1 08:23:46 10° N 08:30:04 71° E 08:32:36 38° SSE
ADEOS II 2.5 08:26:06 10° NNE 08:31:16 56° E 08:32:23 46° SE
IDEFIX/ARIANE 42P 3.3 08:26:36 10° NNE 08:31:39 45° E 08:33:04 37° SE
Cosmos 1455 Rocket 3.7 08:28:07 10° NNW 08:31:35 45° NW 08:31:35 45° NW
Cosmos 2278 Rocket 3.3 08:28:51 10° NW 08:32:36 29° W 08:32:36 29° W
Cosmos 839 Rocket 4.5 08:27:27 10° NW 08:33:53 53° WSW 08:35:17 47° SSW
Cosmos 1536 Rocket 3.8 08:36:38 58° ESE 08:36:57 60° E 08:41:17 10° NNE
CZ-4 R/B 3.9 08:36:46 10° N 08:41:18 56° WNW 08:41:24 56° WNW
Cosmos 1975 Rocket 4.5 08:45:19 27° WNW 08:45:19 27° WNW 08:48:36 10° NNW
FALCON 9 R/B 4.4 08:10:26 10° WNW 08:44:59 59° SSW 08:53:24 10° SE
Cosmos 2184 Rocket 3.9 08:39:00 10° N 08:45:17 89° E 08:47:43 40° S
NPP 3.6 08:40:14 10° N 08:45:35 69° WNW 08:46:35 56° SW
SL-16 R/B 2.4 08:45:29 50° WSW 08:46:36 60° WNW 08:52:13 10° NNE
Cosmos 1455 2.4 08:43:06 10° N 08:46:22 66° NNE 08:46:22 66° NNE
Cosmos 2369 Rocket 3.9 08:42:45 10° N 08:47:42 31° ENE 08:52:36 10° ESE
Cosmos 1025 Rocket 4.3 08:51:25 28° WNW 08:51:25 28° WNW 08:54:41 10° NNW
Cosmos 1271 Rocket 3.7 08:48:02 10° N 08:51:44 44° ENE 08:52:48 34° ESE
UNK 3.6 08:52:25 64° S 08:53:07 83° WSW 08:57:44 10° NNW
YAOGAN 11 4.0 08:54:01 64° S 08:54:42 86° WSW 08:59:12 10° NNW
COSMOS 2455 2.8 08:57:22 46° SW 08:59:17 82° WNW 09:05:21 10° NNE
MOS 1 Rocket 2.9 09:00:29 65° SSW 09:01:01 77° W 09:05:18 10° NNW
Cosmos 1603 4.4 09:07:22 26° SSE 09:10:13 47° ESE 09:15:37 10° NE
Helios 1B rocket 4.2 09:08:07 10° NE 09:11:34 26° E 09:14:02 15° SE
Nadezhda 1 Rocket 4.1 09:13:36 35° SSW 09:16:17 63° W 09:22:33 10° N
Lacrosse 5 3.3 09:14:24 19° W 09:16:57 29° NW 09:21:22 10° NNE
MSX 3.8 09:11:55 10° NNE 09:17:42 88° WNW 09:20:37 31° SSW
Cosmos 1544 Rocket 4.5 09:14:52 10° NNW 09:18:37 31° W 09:18:37 31° W
CZ-2C R/B 4.5 09:15:26 10° NE 09:19:25 23° E 09:23:18 10° SE
Lacrosse 5 rocket 2.7 09:19:29 23° WNW 09:20:40 27° NW 09:24:07 10° NNE
Helios 1A 2.9 09:19:40 43° S 09:20:56 71° WSW 09:25:09 10° NNW
CZ-2D R/B 3.5 09:23:11 10° NNW 09:27:22 24° WNW 09:29:03 20° W
Lacrosse 4 Rocket 4.0 09:28:42 10° SE 09:31:09 15° ESE 09:33:35 10° ENE
Cosmos 1703 3.7 09:32:08 39° WSW 09:32:50 43° W 09:36:37 10° N
Cosmos 1892 Rocket 4.0 09:33:24 19° S 09:36:27 61° E 09:40:52 10° NNE
GPS 2-04 Rocket1 3.3 09:39:12 30° S 09:39:26 31° SSE 09:42:34 10° E
Cosmos 1943 3.2 09:37:59 26° SSW 09:41:18 82° WNW 09:47:01 10° NNE
Meteor 2-1 Rocket 4.3 09:37:13 10° N 09:42:58 82° E 09:48:35 10° S
Cosmos 1726 Rocket 3.9 09:39:21 10° N 09:43:45 67° E 09:48:05 10° SSE
Cosmos 1140 Rocket 4.1 09:40:04 10° N 09:45:16 59° ENE 09:50:24 10° SSE
ATLAS 2A CENTAUR R/B 4.3 09:33:44 20° SW 09:45:23 42° S 09:52:39 10° ESE
Cosmos 2366 rocket 4.4 09:41:03 10° N 09:47:09 62° E 09:53:16 10° SSE
Cosmos 2341 Rocket 4.0 09:42:11 10° N 09:48:37 87° W 09:55:01 10° S
SL-19 R/B 4.4 09:43:23 10° NNE 09:49:28 84° WNW 09:53:58 17° SSW
SeaSat 1 4.1 09:46:36 10° NE 09:50:51 28° ESE 09:55:04 10° SSE
[s.n.52708] 2.5 09:53:18 42° SSW 09:54:05 76° SE 09:56:54 10° NE
[s.n.52707] 2.5 09:53:24 42° SSW 09:54:12 76° SE 09:57:01 10° NE
SL-8 Rocket 4.1 09:47:56 10° N 09:54:17 86° E 10:00:36 10° S
[s.n.52703] 2.5 09:53:31 42° SW 09:54:19 77° SE 09:57:09 10° NE
[s.n.52705] 2.5 09:53:37 42° SW 09:54:25 77° SE 09:57:15 10° NE
[s.n.52706] 2.5 09:53:44 42° SW 09:54:33 77° SE 09:57:22 10° NE
[s.n.52701] 2.5 09:53:51 41° SW 09:54:40 77° SE 09:57:29 10° NE
[s.n.52704] 2.5 09:53:58 41° SW 09:54:46 78° SE 09:57:36 10° NE
[s.n.52699] 2.5 09:54:04 41° SW 09:54:54 78° SE 09:57:43 10° NE
[s.n.52702] 2.5 09:54:11 41° SW 09:55:01 78° SE 09:57:50 10° NE
Resurs 1-4 Rocket 4.2 09:52:47 10° NW 09:55:01 13° WNW 09:57:14 10° W
[s.n.52697] 2.5 09:54:18 41° SW 09:55:08 79° SE 09:57:57 10° NE
[s.n.52700] 2.5 09:54:24 41° SW 09:55:15 79° SE 09:58:04 10° NE
[s.n.52695] 2.5 09:54:31 41° SW 09:55:22 79° SE 09:58:11 10° NE
[s.n.52698] 2.5 09:54:38 41° SW 09:55:28 79° SE 09:58:18 10° NE
[s.n.52693] 2.5 09:54:45 40° SW 09:55:36 80° SE 09:58:26 10° NE
[s.n.52696] 2.5 09:54:51 40° SW 09:55:43 80° SE 09:58:32 10° NE
[s.n.52691] 2.5 09:54:58 40° SW 09:55:49 80° SE 09:58:39 10° NE
[s.n.52689] 2.5 09:55:05 40° SW 09:55:57 81° SE 09:58:47 10° NE
[s.n.52694] 2.5 09:55:12 40° SW 09:56:04 81° SE 09:58:54 10° NE
[s.n.52692] 2.5 09:55:19 40° SW 09:56:11 81° SE 09:59:01 10° NE
[s.n.52687] 2.5 09:55:25 40° SW 09:56:18 81° SE 09:59:07 10° NE
[s.n.52685] 2.5 09:55:32 40° SW 09:56:25 82° SE 09:59:14 10° NE
[s.n.52690] 2.5 09:55:39 39° SW 09:56:32 82° SE 09:59:22 10° NE
[s.n.52688] 2.5 09:55:46 39° SW 09:56:39 82° SE 09:59:29 10° NE
[s.n.52683] 2.5 09:55:52 39° SW 09:56:46 83° SE 09:59:36 10° NE
[s.n.52686] 2.5 09:55:59 39° SW 09:56:54 83° SE 09:59:43 10° NE
[s.n.52681] 2.5 09:56:06 39° SW 09:57:01 83° SE 09:59:51 10° NE
[s.n.52679] 2.5 09:56:13 39° SW 09:57:07 84° SE 09:59:58 10° NE
[s.n.52684] 2.5 09:56:20 39° SW 09:57:15 84° SE 10:00:05 10° NE
[s.n.52682] 2.5 09:56:27 38° SW 09:57:22 84° SE 10:00:12 10° NE
[s.n.52677] 2.5 09:56:34 38° SW 09:57:29 84° SE 10:00:20 10° NE
[s.n.52680] 2.5 09:56:41 38° SW 09:57:37 85° SE 10:00:27 10° NE
[s.n.52675] 2.5 09:56:47 38° SW 09:57:43 85° SE 10:00:33 10° NE
[s.n.52678] 2.5 09:56:54 38° SW 09:57:51 85° SE 10:00:41 10° NE
[s.n.52673] 2.5 09:57:02 38° SW 09:57:59 86° SE 10:00:49 10° NE
[s.n.52676] 2.5 09:57:09 38° SW 09:58:05 86° SSE 10:00:56 10° NE
SL-24 DEB 4.4 09:53:21 10° S 09:58:05 79° E 10:02:48 10° N
[s.n.52671] 2.5 09:57:17 38° SW 09:58:13 86° SE 10:01:03 10° NE
[s.n.52669] 2.5 09:57:23 37° SW 09:58:21 87° SE 10:01:10 10° NE
Cosmos 1892 3.4 09:54:45 10° S 09:58:26 50° E 10:02:06 10° NNE
[s.n.52674] 2.5 09:57:30 37° SW 09:58:28 87° SE 10:01:18 10° NE
[s.n.52672] 2.5 09:57:36 37° SW 09:58:34 87° SE 10:01:24 10° NE
[s.n.52667] 2.5 09:57:44 37° SW 09:58:42 88° SE 10:01:33 10° NE
[s.n.52665] 2.5 09:57:51 37° SW 09:58:49 88° SE 10:01:40 10° NE
[s.n.52670] 2.5 09:57:58 37° SW 09:58:57 88° SE 10:01:47 10° NE
[s.n.52668] 2.5 09:58:05 36° SW 09:59:05 88° ESE 10:01:55 10° NE
[s.n.52666] 2.5 09:58:12 36° SW 09:59:12 89° SE 10:02:02 10° NE
[s.n.52663] 2.5 09:58:19 36° SW 09:59:19 89° SE 10:02:10 10° NE
[s.n.52662] 2.5 09:58:26 36° SW 09:59:26 89° SSE 10:02:17 10° NE
[s.n.52664] 2.5 09:58:33 36° SW 09:59:33 90° SSE 10:02:24 10° NE
[s.n.52661] 2.5 09:58:41 36° SW 09:59:41 89° SW 10:02:31 10° NE
[s.n.52660] 2.5 09:58:47 36° SW 09:59:49 89° NNE 10:02:39 10° NE
[s.n.52656] 2.5 09:58:55 36° SW 09:59:56 89° NW 10:02:46 10° NE
[s.n.52658] 2.5 09:59:02 35° SW 10:00:03 89° NW 10:02:54 10° NE
[s.n.52659] 2.5 09:59:08 35° SW 10:00:10 89° WNW 10:03:01 10° NE
[s.n.52657] 2.5 09:59:17 35° SW 10:00:19 88° NNW 10:03:09 10° NE
SL-16 R/B 3.8 10:00:07 18° WSW 10:01:58 20° W 10:06:25 10° NW
Cosmos 1023 Rocket 4.5 09:58:09 10° NNW 10:03:27 89° W 10:08:41 10° SSE
Cosmos 1943 Rocket 3.5 10:00:41 10° NW 10:04:47 21° W 10:06:33 18° SW
FENGYUN 3A 3.7 10:00:36 10° NNE 10:06:00 83° ESE 10:11:23 10° SSW
Cosmos 2263 4.2 10:01:51 10° NNW 10:07:33 80° WSW 10:13:16 10° SSE
Cosmos 1624 Rocket 4.0 10:02:57 14° SSW 10:07:35 88° ESE 10:12:55 10° NNE
Cosmos 1408 2.6 10:04:50 13° S 10:08:02 83° E 10:11:40 10° N
Cosmos 2228 4.0 10:05:23 10° NNW 10:09:06 28° W 10:11:19 18° SW
ADEOS II 3.8 10:07:02 10° NNW 10:10:27 18° WNW 10:13:19 12° W
IDEFIX/ARIANE 42P 4.1 10:06:58 10° NNW 10:10:52 21° WNW 10:13:52 13° WSW
ARIANE 5 R/B 2.9 10:06:22 10° NNE 10:11:22 61° E 10:16:18 10° S
CBERS-1 4.3 10:09:24 10° N 10:14:21 50° WNW 10:18:37 14° SW
Cosmos 2056 Rocket 3.5 10:14:38 13° SSW 10:19:16 73° WNW 10:24:32 10° NNE
Cosmos 2058 Rocket 3.0 10:15:07 10° N 10:19:31 84° W 10:23:51 10° S
OAO 2 Rocket 3.5 10:16:57 15° WSW 10:20:51 53° S 10:25:38 10° E
Cosmos 1626 Rocket 4.1 10:17:05 10° S 10:21:25 61° E 10:25:44 10° NNE
Cosmos 2251 Rocket 4.4 10:25:47 10° NW 10:30:18 29° W 10:34:49 10° SSW
Cosmos 2369 Rocket 2.8 10:26:42 10° NW 10:31:40 34° WSW 10:36:37 10° SSW
Nadezhda 3 Rocket 4.3 10:28:32 10° S 10:34:49 72° E 10:41:04 10° N
Cosmos 2218 Rocket 4.2 10:30:36 10° NNW 10:36:37 52° W 10:42:41 10° SSW
Cosmos 1190 Rocket 4.0 10:31:43 10° NNW 10:37:00 74° WSW 10:42:17 10° S
Cosmos 1656 Rocket 4.1 10:34:01 10° NW 10:38:56 36° WSW 10:43:51 10° S
IRS-P3 4.2 10:34:01 10° N 10:39:19 66° WNW 10:44:35 10° SSW
Cosmos 1869 3.6 10:39:33 10° N 10:43:28 71° E 10:47:19 10° SSE
CZ-4C R/B 4.1 10:40:18 10° SSE 10:43:47 52° ENE 10:47:29 10° N
In-Cosmos 22 Rocket 4.4 10:39:18 10° SSW 10:45:03 68° W 10:50:53 10° N
Spot 4 Rocket 4.4 10:41:22 10° NNE 10:46:30 67° ESE 10:51:35 10° S
Helios 1B rocket 3.9 10:43:27 10° NNW 10:46:33 21° WNW 10:49:39 10° WSW
Meteor 1-27 4.3 10:41:09 10° N 10:46:56 89° E 10:52:36 10° S
Cosmos 1758 Rocket 4.3 10:43:30 10° S 10:47:48 56° E 10:52:04 10° NNE
PAYLOAD A 4.4 10:45:39 10° N 10:50:07 43° WNW 10:54:42 10° SW
CZ-2D R/B 3.4 10:46:25 10° N 10:50:23 65° WNW 10:54:18 10° SSW
ALOS 2.9 10:46:49 10° N 10:51:08 39° WNW 10:55:26 10° SW
Meteor 1-29 3.4 10:48:26 10° N 10:51:31 41° WNW 10:54:36 10° SW
ATLAS 3B CENTAUR R/B 3.8 10:49:32 10° S 10:52:20 15° SE 10:56:02 10° ESE
Cosmos 676 Rocket 4.1 10:50:13 10° NNW 10:55:34 85° WSW 11:00:54 10° SSE
Cosmos 1821 Rocket 4.1 10:50:34 10° N 10:56:58 78° W 11:03:20 10° S
